Weather History for YBHM - March, 2013

Change the Weather History Date:

Friday, March 22, 2013

  Actual Average Record
Temperature  
Mean Temperature 78 °F -  
Max Temperature 82 °F - - ()
Min Temperature 75 °F - - ()
Cooling Degree Days 14    
Growing Degree Days 28 (Base 50)    
Moisture  
Dew Point 78 °F    
Average Humidity 97    
Maximum Humidity 100    
Minimum Humidity 88    
Precipitation  
Precipitation 0.12 in - - ()
Sea Level Pressure  
Sea Level Pressure 29.96 in    
Wind  
Wind Speed 20 mph ()    
Max Wind Speed 26 mph    
Max Gust Speed 33 mph    
T = Trace of Precipitation, MM = Missing Value Source: Averaged Metar Reports

Daily Weather History Graph

Daily Weather History Graph

Search for Another Location

Airport or City:

Trip Planner

Search our weather history database for the weather conditions in past years. The results will help you decide how hot, cold, wet, or windy it might be!

Date:

Astronomy

Mar. 22, 2013 Rise Set
Actual Time 6:08 AM AEST 6:13 PM AEST
Civil Twilight 5:46 AM AEST 6:35 PM AEST
Nautical Twilight 5:20 AM AEST 7:01 PM AEST
Astronomical Twilight 4:55 AM AEST 7:26 PM AEST
Moon 2:28 PM AEST (3/22) 1:12 AM AEST (3/22)
Length of Visible Light 12h 49m
Length of Day
12h 05m
Waxing Gibbous, 72% of the Moon is Illuminated
Mar 22
Waxing Gibbous
Mar 27
Full
Apr 3
Last Quarter
Apr 10
New
Apr 18
First Quarter

Hourly Weather History & Observations

Time (AEST) Temp. Heat Index Dew Point Humidity Pressure Visibility Wind Dir Wind Speed Gust Speed Precip Events Conditions
12:00 AM 78 °F - 77 °F 96% 29.96 in - ESE 23.0 mph - -  
12:00 AM 78.8 °F - 77.0 °F 94% 29.95 in - ESE 23.0 mph - N/A   Unknown
12:30 AM 77.0 °F - 77.0 °F 100% 29.95 in - ESE 20.7 mph - N/A   Unknown
1:00 AM 77.0 °F - 77.0 °F 100% 29.95 in - ESE 24.2 mph - N/A   Unknown
1:30 AM 78.8 °F - 77.0 °F 94% 29.95 in - SE 23.0 mph - N/A   Unknown
2:00 AM 77.0 °F - 77.0 °F 100% 29.95 in - SE 20.7 mph - N/A   Unknown
2:30 AM 78.8 °F - 77.0 °F 94% 29.95 in - ESE 23.0 mph - N/A   Unknown
3:00 AM 78 °F - 77 °F 97% 29.93 in - ESE 23.0 mph - -  
3:00 AM 77.0 °F - 77.0 °F 100% 29.92 in - ESE 23.0 mph - N/A   Unknown
3:30 AM 78.8 °F - 77.0 °F 94% 29.92 in - SE 21.9 mph - N/A   Unknown
4:00 AM 78.8 °F - 77.0 °F 94% 29.92 in - SE 21.9 mph - N/A   Unknown
4:30 AM 77.0 °F - 77.0 °F 100% 29.92 in - ESE 25.3 mph - N/A   Unknown
5:00 AM 77.0 °F - 77.0 °F 100% 29.95 in - SE 20.7 mph - N/A   Unknown
5:30 AM 77.0 °F - 77.0 °F 100% 29.95 in - ESE 24.2 mph - N/A   Unknown
6:00 AM 78 °F - 77 °F 96% 29.95 in - SE 23.0 mph - -  
6:00 AM 77.0 °F - 77.0 °F 100% 29.95 in - SE 23.0 mph - N/A   Unknown
6:30 AM 78.8 °F - 77.0 °F 94% 29.95 in - SE 20.7 mph - N/A   Unknown
7:00 AM 78.8 °F - 77.0 °F 94% 29.98 in - ESE 24.2 mph - N/A   Unknown
7:30 AM 77.0 °F - 77.0 °F 100% 29.98 in - ESE 21.9 mph - N/A   Unknown
8:00 AM 77.0 °F - 77.0 °F 100% 29.98 in - ESE 24.2 mph - N/A   Unknown
8:30 AM 78.8 °F - 78.8 °F 100% 29.98 in - SE 19.6 mph - N/A   Unknown
9:00 AM 79 °F - 78 °F 97% 30.00 in - ESE 20.7 mph - -  
9:00 AM 78.8 °F - 78.8 °F 100% 30.01 in - ESE 20.7 mph - N/A   Unknown
9:30 AM 80.6 °F 88.1 °F 78.8 °F 94% 30.01 in - ESE 21.9 mph - N/A   Unknown
10:00 AM 82.4 °F 92.4 °F 78.8 °F 89% 30.01 in - SE 19.6 mph - N/A   Unknown
10:30 AM 80.6 °F 87.1 °F 77.0 °F 89% 30.01 in - ESE 25.3 mph - N/A   Unknown
11:00 AM 80.6 °F 87.1 °F 77.0 °F 89% 30.01 in - ESE 25.3 mph - N/A   Unknown
11:30 AM 80.6 °F 87.1 °F 77.0 °F 89% 29.98 in - ESE 26.5 mph - N/A   Unknown
12:00 PM 80 °F - 77 °F 88% 29.98 in - ESE 23.0 mph - -  
12:00 PM 80.6 °F 87.1 °F 77.0 °F 89% 29.98 in - ESE 23.0 mph - N/A   Unknown
12:30 PM 80.6 °F 87.1 °F 77.0 °F 89% 29.98 in - SE 23.0 mph - N/A   Unknown
1:00 PM 80.6 °F 87.1 °F 77.0 °F 89% 29.95 in - SE 21.9 mph - N/A   Unknown
1:30 PM 80.6 °F 88.1 °F 78.8 °F 94% 29.95 in - SE 24.2 mph - N/A   Unknown
2:00 PM 78.8 °F - 78.8 °F 100% 29.92 in - SE 26.5 mph - N/A   Unknown
2:30 PM 78.8 °F - 78.8 °F 100% 29.92 in - SE 20.7 mph - N/A   Unknown
3:00 PM 79 °F - 78 °F 98% 29.92 in - ESE 21.9 mph - -  
3:00 PM 78.8 °F - 78.8 °F 100% 29.92 in - ESE 21.9 mph - N/A   Unknown
3:30 PM - - - N/A% 29.92 in - ESE 21.9 mph - N/A   Unknown
4:00 PM - - - N/A% 29.92 in - ESE 21.9 mph - N/A   Unknown
4:20 PM 77.0 °F - 77.0 °F 100% 29.92 in - East 26.5 mph - N/A   Unknown
4:27 PM 77.0 °F - 77.0 °F 100% 29.92 in - ENE 21.9 mph 33.4 mph N/A   Unknown
4:30 PM 77.0 °F - 77.0 °F 100% 29.92 in - ENE 19.6 mph - N/A   Unknown
5:00 PM 77.0 °F - 77.0 °F 100% 29.92 in - East 17.3 mph - N/A   Unknown
5:30 PM 78.8 °F - 78.8 °F 100% 29.95 in - East 13.8 mph - N/A   Unknown
6:00 PM 79 °F - 78 °F 96% 29.95 in - East 15.0 mph - -  
6:00 PM 78.8 °F - 78.8 °F 100% 29.95 in - East 15.0 mph - N/A   Unknown
6:30 PM 78.8 °F - 78.8 °F 100% 29.95 in - ESE 15.0 mph - N/A   Unknown
7:00 PM 78.8 °F - 78.8 °F 100% 29.98 in - ESE 19.6 mph - N/A   Unknown
7:30 PM 78.8 °F - 78.8 °F 100% 29.98 in - ESE 18.4 mph - N/A   Unknown
8:00 PM 78.8 °F - 78.8 °F 100% 29.98 in - ESE 18.4 mph - N/A   Unknown
8:30 PM 78.8 °F - 78.8 °F 100% 29.98 in - ESE 20.7 mph - N/A   Unknown
9:00 PM 79 °F - 78 °F 98% 30.01 in - ESE 18.4 mph - -  
9:00 PM 78.8 °F - 78.8 °F 100% 30.01 in - ESE 18.4 mph - N/A   Unknown
9:30 PM 78.8 °F - 78.8 °F 100% 30.01 in - ESE 18.4 mph - N/A   Unknown
10:00 PM 78.8 °F - 78.8 °F 100% 30.01 in - ESE 18.4 mph - N/A   Unknown
10:30 PM 78.8 °F - 78.8 °F 100% 30.01 in - ESE 18.4 mph - N/A   Unknown
11:00 PM 78.8 °F - 78.8 °F 100% 30.01 in - ESE 17.3 mph - N/A   Unknown
11:30 PM 78.8 °F - 78.8 °F 100% 30.01 in - ESE 19.6 mph - N/A   Unknown